[[{"header":{"parameterUnit":"m.s-1","parameterCategory":1,"la1":30.2991,"la2":30.254,"lo1":-89.0895,"lo2":-89.0444,"dy":0.0017,"dx":0.0017,"nx":28,"ny":28,"refTime":"2025-06-17T09:00:00:Z","depth":0,"parameterNumber":2,"parameterNumberName":"U-component_of_WINDS"},"data":[0,0,0,0,0,0,0,0,0,0,0,0,0,0,0,0,0,0,0,0,0,0,0,0,0,0,0,0,0,0,0,0,0,0,0,0,0,0,0,0,0,0,0,0,0,0,0,0,0,0,0,0,0,0,0,0,0,0,0.6099,0.6098,0,0.6019,0.6018,0.6017,0.593,0.5929,0.5927,0.5926,0.5843,0.5842,0.5841,0,0,0,0,0,0,0,0,0,0,0,0,0,0.6174,0.6173,0.6099,0.6098,0.6097,0.6019,0.6018,0.6017,0.593,0.5929,0.5927,0.5926,0.5843,0.5842,0.5841,0,0,0,0,0,0,0,0,0,0,0,0,0,0.6123,0.6173,0.6099,0.6044,0.6039,0.6019,0.6018,0.6017,0.5931,0.5929,0.5927,0.5925,0.5843,0.5842,0.584,0.5868,0,0,0.5836,0.5835,0,0,0,0,0,0,0,0,0.6126,0.612,0.6053,0.6048,0.6042,0.5983,0.6014,0.5967,0.5931,0.5972,0.5926,0.5924,0.5891,0.5885,0.5874,0.5864,0.5861,0.5835,0.5834,0.5834,0.5833,0,0,0,0,0,0,0,0.6129,0.6123,0.6067,0.6052,0.6045,0.6023,0.6014,0.6005,0.5943,0.5968,0.5961,0.5953,0.5887,0.5876,0.5872,0.5859,0.5835,0.5834,0.5833,0.5832,0.5867,0.5869,0,0,0,0,0,0,0.6142,0.6127,0.607,0.6065,0.608,0.6023,0.6013,0.6003,0.5942,0.5931,0.5955,0.5949,0.588,0.5874,0.5868,0.5896,0.5834,0.5832,0.5831,0.5865,0.5867,0.5869,0,0,0,0,0,0,0.6144,0.6137,0.6073,0.6094,0.6084,0.6024,0.6014,0.6003,0.5991,0.5933,0.5921,0.5955,0.5878,0.5871,0.5869,0.5892,0.5832,0.583,0.5863,0.5866,0.5868,0.5952,0,0,0,0,0,0,0.6146,0.6139,0.6149,0.6095,0.6083,0.6076,0.6016,0.6003,0.5989,0.5981,0.593,0.5919,0.5876,0.5872,0.5867,0.5888,0.5829,0.586,0.5864,0.5867,0.5947,0.5957,0.5966,0,0,0,0,0,0.6149,0.6176,0.615,0.6144,0.6095,0.6077,0.607,0.602,0.5992,0.6001,0.5963,0.5921,0.589,0.5872,0.5866,0.5888,0.5859,0.5863,0.5867,0.5943,0.5955,0.5966,0,0,0,0,0,0,0.6233,0.6167,0.6138,0.6148,0.6119,0.6063,0.6073,0.6036,0.6014,0.6007,0.5945,0.5934,0.594,0.5913,0.5894,0.5911,0.5868,0.5872,0.5928,0.5939,0.5949,0.5954,0.5828,0,0,0,0,0,0.6253,0.6245,0.6187,0.6202,0.6189,0.6134,0.6124,0.6088,0.6055,0.6042,0.6004,0.5973,0.5956,0.5946,0.5928,0.5943,0.593,0.5954,0.5964,0.5972,0.5976,0.5981,0.5991,0.5883,0.5883,0.5883,0,0,0.6294,0.6257,0.6255,0.6218,0.6191,0.6183,0.6124,0.6118,0.6111,0.6041,0.6037,0.6008,0.5969,0.5976,0.5977,0.5954,0.6003,0.5978,0.5985,0.5983,0.5986,0.5996,0.6005,0.5886,0.5885,0.5885,0,0,0.6364,0.6336,0.6344,0.6318,0.6278,0.6242,0.6244,0.6193,0.6171,0.6166,0.6113,0.6104,0.6077,0.6051,0.6034,0.6094,0.6054,0.609,0.614,0.6146,0.6154,0.6161,0.6182,0.619,0.6094,0.6094,0.6094,0,0.6419,0.6405,0.6353,0.635,0.6334,0.6272,0.6279,0.6256,0.6213,0.6203,0.6179,0.6142,0.6112,0.6111,0.6126,0.6115,0.6114,0.6095,0.6157,0.6164,0.617,0.6189,0.6197,0.6098,0.6098,0.6097,0.6097,0,0.6475,0.6466,0.6478,0.6437,0.6423,0.6426,0.6373,0.6365,0.633,0.6296,0.6291,0.6253,0.6225,0.6222,0.6188,0.6216,0.6203,0.6169,0.6125,0.6186,0.6202,0.6209,0.6105,0.6103,0.6102,0.6101,0,0,0.6595,0.6526,0.6531,0.6511,0.6463,0.6455,0.6454,0.6428,0.6421,0.6393,0.639,0.6369,0.6337,0.6318,0.628,0.6286,0.6334,0.625,0.6248,0.6266,0.6362,0.6387,0.6396,0.6308,0.6309,0.631,0.6364,0,0.6655,0.6651,0.6603,0.6612,0.6603,0.6543,0.6542,0.6512,0.648,0.6467,0.6431,0.6416,0.6376,0.6364,0.6366,0.6328,0.6352,0.6324,0.6303,0.6303,0.6314,0.6405,0.6432,0.6485,0.6371,0.6372,0.6373,0,0.6724,0.6701,0.671,0.6661,0.6655,0.6655,0.6627,0.6615,0.658,0.6556,0.6535,0.6493,0.6488,0.6448,0.6439,0.642,0.6409,0.6389,0.639,0.6385,0.6341,0.6402,0.6501,0.6509,0.6382,0.6382,0.6381,0,0.681,0.6781,0.6781,0.6767,0.671,0.6712,0.6688,0.6651,0.6638,0.6613,0.6603,0.6578,0.6563,0.6544,0.6496,0.6471,0.6492,0.6448,0.6471,0.6472,0.6477,0.6477,0.6575,0.6472,0.6472,0.6472,0.6472,0,0.6881,0.6888,0.6819,0.6819,0.6825,0.6771,0.6778,0.6748,0.6715,0.6708,0.6655,0.6649,0.6586,0.6573,0.6535,0.6533,0.6527,0.6507,0.6496,0.6511,0.6513,0.6502,0.6497,0.6474,0.6473,0.6473,0.6473,0,0.6977,0.6931,0.6928,0.6875,0.6862,0.6868,0.6822,0.682,0.6785,0.6777,0.6772,0.6716,0.6698,0.6648,0.6617,0.6591,0.6599,0.6581,0.6612,0.6605,0.663,0.6628,0.6723,0.6732,0.6625,0.6627,0.6627,0,0.7025,0.7029,0.6977,0.6969,0.6948,0.6935,0.6922,0.6868,0.6856,0.6816,0.6818,0.6796,0.6775,0.6748,0.6705,0.668,0.666,0.6695,0.6655,0.667,0.6659,0.6659,0.6658,0.6703,0.6704,0.6706,0.6706,0,0.7115,0.7092,0.7075,0.705,0.7036,0.7014,0.6988,0.6984,0.6924,0.6913,0.6894,0.6878,0.6846,0.6824,0.6793,0.6767,0.6726,0.6719,0.6723,0.6737,0.6755,0.6745,0.6634,0.6717,0.6716,0.6715,0.6715,0.6714,0.7187,0.7187,0.7151,0.7134,0.7109,0.7087,0.7082,0.7047,0.7031,0.7001,0.697,0.6955,0.6918,0.6872,0.6849,0.6835,0.6814,0.682,0.6821,0.6823,0.6829,0.6758,0.6829,0.6829,0.6829,0.6828,0.6828,0,0.7272,0.7246,0.7231,0.7198,0.7184,0.7149,0.7119,0.7109,0.7097,0.7067,0.7048,0.7025,0.7004,0.6959,0.6933,0.693,0.6911,0.6925,0.6924,0.6918,0.685,0.6849,0.6941,0.6941,0.6941,0.6941,0.6941,0.6941,0.7315,0.7315,0.7288,0.7274,0.7247,0.7232,0.7218,0.7197,0.7172,0.7151,0.7133,0.7104,0.7068,0.7038,0.7017,0.7004,0.6996,0.7016,0.6997,0.6934,0.6923,0.6913,0.6912,0.7015,0.7015,0.7066,0.7067,0.7067]},{"header":{"parameterUnit":"m.s-1","parameterCategory":1,"la1":30.2991,"la2":30.254,"lo1":-89.0895,"lo2":-89.0444,"dy":0.0017,"dx":0.0017,"nx":28,"ny":28,"refTime":"2025-06-17T09:00:00:Z","depth":0,"parameterNumber":3,"parameterNumberName":"V-component_of_WINDS"},"data":[0,0,0,0,0,0,0,0,0,0,0,0,0,0,0,0,0,0,0,0,0,0,0,0,0,0,0,0,0,0,0,0,0,0,0,0,0,0,0,0,0,0,0,0,0,0,0,0,0,0,0,0,0,0,0,0,0,0,4.5827,4.5829,0,4.601,4.6012,4.6014,4.6098,4.6098,4.6098,4.6098,4.6272,4.6277,4.6282,0,0,0,0,0,0,0,0,0,0,0,0,0,4.5537,4.5542,4.5826,4.5829,4.5831,4.6009,4.6012,4.6014,4.6098,4.6098,4.6098,4.6098,4.6271,4.6276,4.6282,0,0,0,0,0,0,0,0,0,0,0,0,0,4.5685,4.5544,4.5826,4.5895,4.5903,4.6009,4.6012,4.6015,4.6098,4.6098,4.6098,4.6098,4.6269,4.6276,4.6283,4.6331,0,0,4.6305,4.6308,0,0,0,0,0,0,0,0,4.5677,4.5696,4.5882,4.589,4.5899,4.6031,4.5974,4.612,4.6098,4.6024,4.6098,4.6098,4.6191,4.6205,4.6239,4.6339,4.6346,4.6305,4.631,4.6313,4.6315,0,0,0,0,0,0,0,4.5667,4.5689,4.5899,4.5885,4.5895,4.5912,4.5933,4.6002,4.6106,4.603,4.6037,4.6058,4.6196,4.6232,4.6244,4.6349,4.6305,4.6311,4.6316,4.6319,4.6497,4.6497,0,0,0,0,0,0,4.5647,4.5679,4.5893,4.5904,4.5786,4.5918,4.5941,4.5989,4.6105,4.6123,4.6058,4.6061,4.622,4.6235,4.625,4.6315,4.6313,4.6319,4.6323,4.6496,4.6497,4.6497,0,0,0,0,0,0,4.564,4.5665,4.5885,4.5794,4.5823,4.5923,4.5976,4.5993,4.6029,4.6127,4.6144,4.6077,4.6221,4.624,4.6311,4.6322,4.6323,4.6329,4.6496,4.6497,4.6497,4.6444,0,0,0,0,0,0,4.5632,4.5662,4.5684,4.5794,4.5828,4.5947,4.5977,4.5996,4.6043,4.6049,4.6149,4.6165,4.6222,4.63,4.6318,4.6332,4.6335,4.6495,4.6496,4.6497,4.6445,4.6443,4.644,0,0,0,0,0,4.5621,4.5659,4.5685,4.571,4.5858,4.5947,4.5966,4.6034,4.6043,4.6065,4.6127,4.6162,4.6318,4.6307,4.6328,4.6344,4.6495,4.6496,4.6497,4.6446,4.6443,4.6441,0,0,0,0,0,0,4.5543,4.5674,4.5705,4.578,4.5853,4.5961,4.599,4.6029,4.6097,4.6099,4.6176,4.6198,4.6262,4.631,4.6295,4.6396,4.6409,4.6415,4.6363,4.6361,4.6359,4.6346,4.6341,0,0,0,0,0,4.5536,4.5601,4.571,4.5766,4.5801,4.5889,4.593,4.5977,4.6053,4.6083,4.6151,4.622,4.6285,4.6325,4.639,4.6452,4.6474,4.6473,4.6471,4.6469,4.6472,4.6509,4.651,4.6501,4.6501,4.6501,0,0,4.5518,4.5598,4.5634,4.5752,4.5814,4.5877,4.5914,4.5978,4.6025,4.6091,4.6164,4.6216,4.6298,4.6365,4.6397,4.6406,4.648,4.647,4.6467,4.6473,4.651,4.6511,4.6511,4.6501,4.6501,4.6501,0,0,4.5521,4.5588,4.5643,4.5705,4.58,4.5858,4.5871,4.5975,4.6013,4.6088,4.614,4.6194,4.6303,4.6361,4.6403,4.6428,4.6463,4.6446,4.6435,4.6469,4.647,4.6471,4.648,4.6483,4.645,4.6449,4.6449,0,4.5487,4.5588,4.5665,4.5728,4.5778,4.5845,4.5899,4.5954,4.6062,4.6093,4.6103,4.6244,4.6303,4.6385,4.6391,4.6424,4.6439,4.6436,4.6465,4.6466,4.6468,4.6478,4.6481,4.6447,4.6447,4.6448,4.6448,0,4.5542,4.5611,4.5643,4.5752,4.5805,4.5862,4.5945,4.5988,4.603,4.6086,4.6161,4.6235,4.6317,4.6339,4.6379,4.6426,4.643,4.645,4.6465,4.6466,4.6476,4.648,4.6444,4.6444,4.6445,4.6446,0,0,4.55,4.5653,4.5663,4.5714,4.5824,4.5876,4.5936,4.6021,4.6057,4.6128,4.6179,4.6271,4.6293,4.6341,4.6387,4.6418,4.6433,4.6435,4.6438,4.6433,4.649,4.6475,4.6478,4.6457,4.6458,4.6458,4.6484,0,4.5518,4.5634,4.5705,4.579,4.5855,4.592,4.5971,4.6042,4.6096,4.6155,4.6212,4.6278,4.63,4.633,4.6363,4.6424,4.6446,4.6423,4.6502,4.6504,4.6481,4.6484,4.6467,4.6488,4.6488,4.6489,4.649,0,4.5555,4.5632,4.5725,4.5829,4.5858,4.5904,4.5988,4.6044,4.6125,4.6162,4.6217,4.6265,4.6327,4.6336,4.6422,4.6405,4.6441,4.6476,4.6478,4.6489,4.6497,4.6494,4.6496,4.6499,4.6497,4.6496,4.6495,0,4.5516,4.5642,4.5715,4.5756,4.5878,4.5909,4.5961,4.6042,4.6088,4.6159,4.619,4.6265,4.6306,4.6362,4.6427,4.6428,4.6506,4.6521,4.6537,4.6535,4.6551,4.6549,4.6559,4.6573,4.6572,4.6572,4.6572,0,4.553,4.5584,4.57,4.5744,4.5806,4.5885,4.5943,4.5999,4.6071,4.6125,4.6183,4.6232,4.6315,4.6373,4.6423,4.6487,4.6504,4.6534,4.6547,4.653,4.6526,4.6555,4.6555,4.6573,4.6573,4.6573,4.6573,0,4.5498,4.5577,4.5661,4.5772,4.5801,4.5842,4.5934,4.5978,4.6036,4.6104,4.6123,4.6212,4.6284,4.6355,4.6448,4.6482,4.6545,4.6562,4.652,4.6527,4.654,4.6538,4.6569,4.6577,4.6583,4.6583,4.6583,0,4.5502,4.5546,4.5663,4.5706,4.5758,4.5825,4.5875,4.5953,4.6001,4.6097,4.6128,4.6205,4.6271,4.6381,4.6451,4.6523,4.6543,4.6549,4.6554,4.6535,4.6544,4.6541,4.6546,4.6546,4.6546,4.6545,4.6545,0,4.55,4.5538,4.561,4.5695,4.5754,4.5823,4.5894,4.5924,4.6015,4.6066,4.6142,4.6193,4.6292,4.6367,4.6448,4.6496,4.6535,4.6543,4.6551,4.6534,4.6508,4.6523,4.6514,4.6542,4.6542,4.6543,4.6543,4.6543,4.5487,4.5531,4.5621,4.5698,4.5761,4.5826,4.5874,4.5939,4.6006,4.6096,4.6136,4.6213,4.6291,4.6405,4.6453,4.6511,4.6521,4.6532,4.6535,4.6537,4.6533,4.6499,4.6526,4.6526,4.6526,4.6526,4.6526,0,4.549,4.5552,4.5623,4.5724,4.5784,4.582,4.59,4.5947,4.6015,4.6087,4.6152,4.6239,4.6312,4.6389,4.6466,4.6497,4.6517,4.6515,4.6513,4.6524,4.6519,4.6506,4.6498,4.6498,4.6498,4.6498,4.6498,4.6498,4.5499,4.5575,4.5623,4.5729,4.5789,4.5869,4.5912,4.5972,4.603,4.6127,4.619,4.6241,4.6314,4.6397,4.6464,4.6485,4.651,4.6503,4.6528,4.6522,4.6524,4.6526,4.6514,4.6508,4.6508,4.6528,4.6528,4.6528]}]]